SL-16 DEB, 39911

Orbit data source: Space-Track

SL-16 DEB, 39911 is space debris in LEO originally from a launch on Fri, 26 Mar 1993 UTC launched from the Tyuratam Missile And Space Complex (TTMTR). Debris objects in space refer to the collection of defunct objects orbiting the Earth. Examples of debris include non-operational satellites, rocket bodies, and fragments generated from explosions, collisions, or faulty payload assembly.

Loading next visibility...
Identifier
39911, 1993-016CM
Orbit
LEO
Country
Flag of CISCIS
Related business
Manufacturer
Unknown
Mission
Spacecraft
Bus & Motor
Unknown
Mass
Unknown
Launch date (UTC)
1993-03-26 (33 years ago)
Launch vehicle
Unknown
Launch site
Tyuratam Missile And Space Complex (TTMTR)
Object type
Payload
Rocket body
Debris
Shape & HBR
Unknown shape, 0.1 m
Radar Cross Section
Small (<0.1 m²)

Expand to show TLE details & history
Last TLE update: 5 months ago

TLE from 5 months ago
0 SL-16 DEB
1 39911U 93016CM  25255.97266664  .00000113  00000-0  14615-3 0  9992
2 39911  71.0019 155.0172 0199758 249.2592 108.7001 13.73313992565213
Epoch: 2025-09-12T23:20Z
TLE epoch observation values (Epoch: 2025-09-12T23:20:38.397Z)
Latitude
-0.00007°
Longitude
172.64448°
Altitude
1,039.843 km
Speed
7.307 km/s
True Right ascension
10h 20m 04s
True Declination
0° 00' 00"
Sunlit
Object was in daylight at epoch
Visualization orbit readout
Latitude
Unknown
Longitude
Unknown
Altitude
Unknown
Speed
Unknown
Apparent Right ascension
Unknown
Apparent Declination
Unknown
Sunlit
N/A
Visualization observer readout
Local Sidereal Time
20:18:16
Azimuth
Unknown
Elevation
Unknown
Doppler factor
Unknown
Orbital elements
Apogee altitude
1,132.76 km
Perigee altitude
838.564 km
Semi-major axis
7,363.799 km
Eccentricity
0.01998
Inclination
71.0019°
RAAN
155.0172°
Arg. of periapsis
249.2592°
True anomaly
110.85059°
Mean anomaly
108.7001°
Eccentric anomaly
109.77712°
Mean motion
3.43471 °/min
Orbital period
104.81 mins
BSTAR
0.00014615
Loading maneuver chart data...
Computing Atmospheric mass density...
Loading historical data...
Loading historical data...
Loading historical data...
Loading historical data...
Loading historical data...
Loading historical data...
Loading historical data...

Documentation

Showing up to 5 results
|